This demonstration page uses our WeatherBlox Daily Observations layout. Learn more.

Left ArrowRight Arrow

39.12711, -84.51439

Hourly Observations for January 27, 2022

Temp ( °F °C ) Dew Point ( °F °C ) Humidity (%) Winds ( mph kmh ) Pressure ( in mb ) Visibility ( mi km ) Precip ( " mm )
12:53 am 00:53 Clear 10 -12.2 8 -13.3 92 92 Calm 30.42 1030 10 16 0.00 0.00
1:53 am 01:53 Clear 9 -12.8 7 -13.9 92 92 Calm 30.39 1029 10 16 0.00 0.00
2:53 am 02:53 Clear 9 -12.8 7 -13.9 92 92 Calm 30.40 1029 10 16 0.00 0.00
3:53 am 03:53 Clear 8 -13.3 5 -15 87 87 Calm 30.38 1029 10 16 0.00 0.00
4:53 am 04:53 Clear 7 -13.9 5 -15 91 91 Calm 30.37 1028 10 16 0.00 0.00
5:53 am 05:53 Clear 8 -13.3 6 -14.4 92 92 Calm 30.37 1029 10 16 0.00 0.00
6:53 am 06:53 Mostly Clear 8 -13.3 6 -14.4 92 92 ENE 3 6 30.37 1029 10 16 0.00 0.00
7:53 am 07:53 Mostly Cloudy 11 -11.7 9 -12.8 92 92 Calm 30.37 1029 10 16 0.00 0.00
8:53 am 08:53 Cloudy 16 -8.9 10 -12.2 77 77 SSW 3 6 30.37 1029 10 16 0.00 0.00
9:53 am 09:53 Partly Cloudy 20 -6.7 12 -11.1 71 71 SSW 7 11 30.37 1028 10 16 0.00 0.00
10:53 am 10:53 Cloudy 26 -3.3 13 -10.6 57 57 S 6 9 30.35 1028 10 16 0.00 0.00
11:53 am 11:53 Cloudy 30 -1.1 10 -12.2 43 43 S 6 9 30.32 1027 10 16 0.00 0.00
12:53 pm 12:53 Cloudy 32 0 15 -9.4 50 50 SSW 10 17 30.28 1025 10 16 0.00 0.00
1:53 pm 13:53 Cloudy 35 1.7 18 -7.8 50 50 SSW 9 15 30.24 1024 10 16 0.00 0.00
2:53 pm 14:53 Cloudy 35 1.7 21 -6.1 57 57 SSW 9 15 30.21 1023 10 16 0.00 0.00
3:53 pm 15:53 Cloudy 36 2.2 20 -6.7 52 52 S 9 15 30.20 1023 10 16 0.00 0.00
4:53 pm 16:53 Cloudy 36 2.2 22 -5.6 57 57 SSW 7 11 30.21 1023 10 16 0.00 0.00
5:53 pm 17:53 Cloudy 35 1.7 23 -5 61 61 SSW 12 19 30.21 1023 10 16 0.00 0.00
6:53 pm 18:53 Cloudy 36 2.2 21 -6.1 55 55 SSW 8 13 30.22 1023 10 16 0.00 0.00
7:53 pm 19:53 Cloudy 35 1.7 22 -5.6 59 59 SW 6 9 30.23 1024 10 16 0.00 0.00
8:53 pm 20:53 Cloudy with Light Snow 34 1.1 27 -2.8 76 76 WSW 7 11 30.24 1024 5 8 0.00 0.00
9:51 pm 21:51 Cloudy 34 1 28 -2 81 81 Calm 30.25 1024 10 16 0.00 0.00
9:53 pm 21:53 Cloudy with Light Snow 33 0.6 28 -2.2 82 82 W 3 6 30.24 1024 9 14 0.00 0.00
10:53 pm 22:53 Cloudy with Light Snow 32 0 30 -1.1 92 92 WNW 3 6 30.22 1024 4 6 0.00 0.00
11:00 pm 23:00 Cloudy with Light Snow 32 0 30 -1.1 92 92 WNW 5 7 30.24 1024 5 8 0.00 0.00
11:53 pm 23:53 Cloudy with Light Snow 31 -0.6 30 -1.1 96 96 SSW 3 6 30.22 1023 3 4 0.00 0.00

Powered by AerisWeather